Regional Weather Roundup
Issued by NWS

Home | Current Version | Previous Version | Text Only | Print | Product List | Glossary On
Versions: 1 2 3 4 5 6 7 8 9 10 11 12 13 14 15 16 17 18 19 20 21 22 23 24 25 26 27 28 29 30 31 32 33 34 35 36 37 38 39 40 41 42 43 44 45 46 47 48 49 50
000
ASUS43 KLSX 282259
RWRMO

WEATHER SUMMARY FOR MISSOURI
NATIONAL WEATHER SERVICE SPRINGFIELD MO
600 PM CDT SUN MAY 28 2017

NOTE: "FAIR" INDICATES FEW OR NO CLOUDS BELOW 12,000 FEET WITH NO
       SIGNIFICANT WEATHER AND/OR OBSTRUCTIONS TO VISIBILITY.
       CURRENT SKY AND/OR WEATHER CONDITIONS ARE NOT AVAILABLE FOR
       CHILLICOTHE AND FARMINGTON.

MOZ001>031-035>038-043-044-053-054-290000-
...NORTHERN AND WESTERN MISSOURI...

CITY           SKY/WX    TMP DP  RH WIND       PRES   REMARKS
KANSAS CTY INT MOSUNNY   79  49  34 W12       29.92F
KANSAS C DTWN  SUNNY     80  47  31 W10       29.91F
LEE`S SUMMIT   SUNNY     79  47  32 NW14G20   29.93F
ST JOSEPH      SUNNY     82  47  29 W12       29.90F
CHILLICOTHE      N/A     80  48  32 VRB6      29.90S
KIRKSVILLE     SUNNY     78  44  29 W10       29.87F

$$
MOZ066>068-077>081-088>096-101>105-290000-
...SOUTHWEST MISSOURI...

CITY           SKY/WX    TMP DP  RH WIND       PRES   REMARKS
SPRINGFIELD    SUNNY     77  53  43 NW13      29.96F
JOPLIN         SUNNY     80  51  36 NW12      29.97F
BRANSON        MOSUNNY   75  55  50 NW9       29.99S

$$
MOZ032>034-039>042-045>050-055>058-069>072-290000-
...CENTRAL MISSOURI...

CITY           SKY/WX    TMP DP  RH WIND       PRES   REMARKS
COLUMBIA       MOSUNNY   78  57  48 W8        29.90F
JEFFERSON CITY MOSUNNY   80  54  40 W12       29.89F
ROLLA          SUNNY     75  55  49 W10       29.92S
SEDALIA        MOSUNNY   80  55  42 NW12      29.92F
WARRENSBURG    MOSUNNY   79  52  38 W12       29.92S
OSAGE BEACH    SUNNY     77  56  48 W8        29.94S

$$
MOZ051-052-059>065-290000-
...EAST CENTRAL MISSOURI...

CITY           SKY/WX    TMP DP  RH WIND       PRES   REMARKS
ST LOUIS INTL  MOSUNNY   81  54  39 NW13      29.87S
SPIRIT OF STL  MOSUNNY   79  57  46 W10       29.86F
ST CHARLES     SUNNY     81  54  39 W10G21    29.85F

$$
MOZ072>076-082>087-097>100-106>115-290000-
...SOUTH CENTRAL AND SOUTHEAST MISSOURI...

CITY           SKY/WX    TMP DP  RH WIND       PRES   REMARKS
CAPE GIRARDEAU MOSUNNY   78  63  59 NW12      29.87S
FARMINGTON     MOSUNNY   76  60  57 W10G16    29.91S
WEST PLAINS    MOSUNNY   77  59  53 NW8       29.95F

$$




USA.gov is the U.S. government's official web portal to all federal, state and local government web resources and services.